This is the latest recevied weather packets stored in our database for station/object SP4MAZ-13. If no packets are shown the sender has not sent any weather packets the latest 10 day(s).
| Time | Temp. | Humidity | Pressure | Rain* | Wind** | Luminosity | Snow |
|---|---|---|---|---|---|---|---|
| 1777462619 | 6.11° C | 56% | 2147.4 hPa | - | - | - | - |
| 1777462315 | 6.11° C | 46% | 2147.4 hPa | - | - | - | - |
| 1777462012 | 6.67° C | 56% | 2147.4 hPa | - | - | - | - |
| 1777461709 | 6.11° C | 52% | 2147.4 hPa | - | - | - | - |
| 1777461405 | 6.11° C | 55% | 2147.4 hPa | - | - | - | - |
| 1777461101 | 6.67° C | 50% | 2147.4 hPa | - | - | - | - |
| 1777460798 | 6.67° C | 56% | 2147.4 hPa | - | - | - | - |
| 1777460191 | 6.67° C | 53% | 2147.4 hPa | - | - | - | - |
| 1777458978 | 5.56° C | 57% | 2147.4 hPa | - | - | - | - |
| 1777458674 | 5.56° C | 57% | 2147.4 hPa | - | - | - | - |
| 1777458371 | 5.56° C | 57% | 2147.4 hPa | - | - | - | - |
| 1777458067 | 5.56° C | 59% | 2147.4 hPa | - | - | - | - |
| 1777457764 | 5.56° C | 69% | 2147.4 hPa | - | - | - | - |
| 1777457461 | 5° C | 71% | 2147.4 hPa | - | - | - | - |
| 1777457157 | 4.44° C | 72% | 2147.4 hPa | - | - | - | - |
| 1777455640 | 6.11° C | 55% | 2147.4 hPa | - | - | - | - |
| 1777455337 | 5.56° C | 53% | 2147.4 hPa | - | - | - | - |
| 1777455033 | 6.11° C | 55% | 2147.4 hPa | - | - | - | - |
| 1777454729 | 6.11° C | 56% | 2147.4 hPa | - | - | - | - |
| 1777454427 | 6.11° C | 53% | 2147.4 hPa | - | - | - | - |
| 1777454123 | 5.56° C | 51% | 2147.4 hPa | - | - | - | - |
| 1777453820 | 6.11° C | 51% | 2147.4 hPa | - | - | - | - |
| 1777453516 | 6.11° C | 52% | 2147.4 hPa | - | - | - | - |
| 1777453212 | 6.11° C | 57% | 2147.4 hPa | - | - | - | - |
| 1777452909 | 6.11° C | 55% | 2147.4 hPa | - | - | - | - |
* Rain since midnight (hover to see other rain measurements)
** Current wind speed in m/s (hover to see current wind gust speed)